Wind_Speed
24 24 25 26 26 26 25 25 24 24 22 21 19 18 16 17 19 12 17 13 18 14 15 20 24 23 21 19 20 13 9 6 4 9 13 9 13 10 11 13 9 3 21 28 32
25 26 27 28 28 28 28 27 26 26 26 22 19 17 14 13 17 25 30 21 23 19 20 26 24 22 17 19 15 14 6 8 7 5 11 9 16 10 12 12 11 17 28 32 33
27 29 30 31 32 30 31 31 29 28 23 20 18 16 10 9 15 14 10 38 25 26 24 25 24 20 21 16 18 17 8 25 6 9 2 12 16 9 14 11 13 19 26 27 30
30 31 33 34 35 34 36 34 30 27 23 22 20 15 7 8 6 8 6 14 32 28 27 25 22 23 21 21 17 16 10 16 9 6 1 7 15 12 4 13 17 20 25 26 25
31 33 35 37 38 37 40 32 33 30 28 23 17 10 5 10 16 5 4 7 22 31 31 24 25 23 23 19 15 18 17 10 4 4 5 3 7 5 9 13 19 21 24 25 23
33 35 37 38 40 41 41 30 34 27 17 13 11 8 10 18 10 14 9 14 21 33 31 27 22 23 21 20 18 15 17 11 10 11 9 10 8 8 12 14 20 22 24 24 24
35 37 39 41 42 44 36 32 28 17 17 11 12 14 15 19 5 8 16 20 22 32 25 29 25 19 21 16 16 19 8 16 14 13 9 9 12 15 17 17 19 21 22 23 24
36 38 39 41 41 45 26 29 17 15 18 6 14 12 9 4 22 13 16 21 22 27 26 25 27 21 23 15 7 19 19 17 20 19 15 12 16 17 16 18 20 21 21 23 25
36 38 39 41 42 35 29 21 10 12 6 12 10 14 10 4 15 25 21 24 25 24 23 21 23 16 22 18 15 17 18 23 20 22 16 16 16 20 19 19 19 19 20 21 23
36 39 40 41 39 29 30 17 9 5 2 6 8 7 10 11 15 23 25 25 22 19 18 18 15 18 20 20 20 22 23 21 22 17 18 19 19 15 19 19 18 19 20 21 23
38 40 41 39 26 27 29 17 4 7 14 14 6 15 2 8 5 20 26 23 22 21 19 24 20 26 29 27 24 22 21 23 22 17 22 19 20 18 16 14 17 20 21 22 23
38 40 41 35 16 20 20 13 9 10 16 22 29 28 32 7 12 18 29 23 25 26 26 19 27 26 25 27 25 27 25 23 21 14 13 17 18 16 15 18 17 21 21 23 22
38 39 39 31 12 16 8 19 16 15 9 18 27 25 23 25 16 23 31 29 29 30 29 27 20 27 26 26 27 28 27 23 19 21 17 16 18 17 16 14 15 20 21 22 24
37 38 33 29 7 18 12 22 18 11 7 9 10 8 22 20 20 26 35 31 20 33 31 29 25 25 27 27 26 26 26 23 20 19 18 23 16 20 18 17 18 20 21 21 23
36 37 24 10 14 11 19 23 18 8 7 13 10 8 11 23 8 30 34 34 27 26 29 31 28 23 27 27 25 25 20 25 23 22 20 24 17 18 25 26 22 21 22 22 24
37 29 17 8 14 16 23 21 8 8 10 7 7 10 14 24 25 23 27 32 30 25 27 30 21 24 22 23 23 21 16 19 22 19 21 25 21 20 19 18 24 24 23 24 22
38 19 9 10 12 22 20 11 8 11 1 9 11 10 12 17 24 17 32 32 29 29 29 28 32 24 22 22 24 18 19 12 16 18 20 24 25 20 20 21 20 21 24 23 21
37 14 9 9 18 18 17 12 14 19 15 21 19 22 20 19 22 24 27 26 35 30 19 22 24 33 21 28 24 26 25 15 21 18 17 25 27 24 26 17 18 22 21 22 22
29 9 5 16 17 14 9 12 12 13 18 19 26 20 18 22 7 25 27 28 30 34 31 25 32 31 31 24 27 23 25 27 22 23 14 19 27 24 21 26 20 15 23 22 23
23 17 1 20 16 13 9 15 13 12 17 16 20 16 22 15 9 16 23 24 26 34 30 28 18 31 31 26 29 27 26 23 17 18 16 15 15 18 20 15 27 25 18 23 21
15 7 12 20 15 8 9 11 17 17 13 13 20 21 18 19 25 17 20 8 10 14 33 32 20 18 25 29 27 26 22 24 20 18 13 11 12 15 19 20 19 20 26 21 20
10 7 16 19 11 2 7 9 6 13 13 13 15 19 18 13 18 20 16 10 12 14 15 22 14 20 31 28 26 27 28 27 17 24 17 12 3 9 6 7 19 20 18 23 21
9 9 1 13 7 9 9 13 9 12 9 9 12 13 19 17 8 14 11 9 11 11 8 8 14 16 21 25 28 31 31 25 27 18 21 15 6 9 5 1 13 16 15 16 17
6 5 6 8 7 12 13 15 14 6 7 12 7 7 16 17 16 11 10 12 7 9 14 9 16 23 17 24 23 28 28 30 24 19 18 20 13 12 9 10 8 5 7 10 5
5 5 5 7 10 12 12 13 12 7 9 13 1 7 8 8 17 9 11 15 11 3 11 6 15 20 26 17 8 28 31 31 30 24 24 15 19 16 13 11 12 13 9 8 8
5 5 7 12 7 13 12 13 10 13 14 15 8 15 11 12 12 15 13 13 5 13 11 11 12 18 24 23 6 13 20 33 30 28 25 23 16 18 16 11 7 5 5 5 7
7 13 5 7 10 8 11 13 13 16 11 9 10 13 15 9 13 16 11 17 16 14 13 12 10 8 15 20 11 17 20 19 23 27 24 22 19 14 5 3 5 6 8 10 10
Wind_Direction
356 353 352 349 345 342 337 334 330 325 321 317 313 310 313 313 305 272 247 234 216 220 170 178 192 201 208 217 232 264 275 279 172 62 120 150 110 71 92 129 130 82 135 139 153
357 355 353 350 347 342 338 332 326 320 316 311 307 304 310 319 294 265 247 234 228 193 186 187 190 194 210 222 221 237 52 288 64 83 117 115 101 118 134 138 117 110 117 143 156
358 356 353 353 349 342 338 332 323 317 312 309 305 301 306 322 277 254 240 221 211 192 203 196 196 199 217 225 221 227 159 263 107 41 343 142 118 141 123 157 139 134 145 153 157
356 354 353 351 348 345 340 333 327 320 310 304 297 296 290 274 263 80 110 199 212 199 210 198 205 202 217 218 222 244 173 260 118 116 31 154 127 127 175 122 132 143 154 157 167
356 353 352 350 348 345 341 333 329 318 307 298 283 271 267 223 249 231 250 183 189 193 208 199 207 204 216 223 222 233 268 217 247 214 200 3 148 136 123 131 134 146 159 164 172
356 354 352 348 346 342 340 332 327 321 313 296 265 213 229 247 258 223 201 172 184 193 208 203 210 208 225 235 214 216 240 245 228 222 200 207 170 203 150 148 146 155 165 170 177
356 354 350 347 344 340 337 334 330 323 317 279 232 193 234 238 211 218 204 197 195 197 206 206 213 211 226 243 235 243 239 231 236 230 223 220 199 199 155 159 159 165 170 174 182
357 353 349 346 343 338 334 334 328 327 322 267 182 195 252 241 240 228 204 199 198 204 216 206 214 222 226 243 242 223 238 230 216 213 213 214 207 195 170 171 171 171 174 176 182
356 353 350 347 342 341 336 328 323 347 334 141 156 222 258 181 219 213 205 201 193 202 217 208 214 224 222 236 227 217 225 221 221 204 208 207 242 168 172 174 179 180 177 181 183
354 352 349 347 345 348 339 320 270 289 143 219 266 211 245 227 208 203 204 203 192 191 203 213 211 212 223 213 222 216 215 222 222 183 209 195 230 162 173 177 185 184 183 185 187
353 351 348 348 352 359 343 319 273 201 237 258 191 248 299 198 173 191 189 192 198 195 197 201 203 212 210 217 228 239 223 228 209 186 195 226 204 220 168 193 188 183 190 190 190
352 349 347 346 352 2 17 33 23 306 294 272 258 258 257 242 206 193 185 191 195 197 199 188 218 215 221 216 223 232 243 226 230 223 205 212 229 233 208 182 200 187 193 193 191
350 348 344 342 328 349 350 10 335 322 267 281 238 232 217 224 225 196 191 199 196 199 201 207 211 216 212 220 214 228 229 235 233 223 211 232 243 230 217 185 194 199 193 197 194
348 345 341 339 307 339 4 340 332 321 279 249 196 225 213 199 230 238 193 199 192 208 207 221 223 197 215 218 217 221 222 240 237 240 223 208 238 220 231 204 190 204 192 196 199
346 344 340 333 312 336 334 327 324 265 279 112 129 119 181 191 188 200 188 203 210 207 208 213 218 205 211 215 215 228 223 218 236 244 250 245 235 238 204 213 195 203 198 200 192
342 343 336 349 289 334 324 319 287 238 236 159 124 189 181 209 247 170 187 209 220 210 214 229 208 223 214 216 218 221 228 235 220 232 237 233 237 235 234 215 193 196 204 196 200
339 339 315 311 328 324 323 294 246 240 4 31 357 321 231 205 221 206 188 196 206 215 215 213 229 212 225 211 208 202 209 206 218 219 233 220 232 235 232 222 216 206 201 199 193
337 324 292 305 327 322 309 273 253 275 13 353 329 308 278 264 202 205 195 202 213 211 213 211 212 221 200 212 199 201 208 214 208 218 227 224 227 229 236 245 231 201 207 195 190
342 325 284 341 329 316 287 270 283 351 347 335 321 282 252 232 254 207 214 212 206 219 219 204 224 194 215 212 212 195 213 217 234 212 236 217 217 238 231 218 219 222 203 202 182
325 303 242 342 326 287 270 271 353 355 335 324 302 305 323 342 217 252 212 222 219 211 235 246 225 221 198 207 217 226 205 215 236 252 218 238 234 207 202 230 206 209 213 211 198
301 302 21 337 295 272 300 353 339 330 322 314 307 300 307 317 314 282 246 80 359 283 216 236 252 242 203 201 201 208 214 214 229 232 237 243 241 220 199 198 216 214 207 210 203
311 317 4 333 290 18 325 349 281 302 309 328 314 296 280 303 299 301 334 44 354 313 267 213 225 239 203 197 213 209 214 201 221 217 236 268 49 48 100 215 191 210 206 212 207
323 301 107 332 359 331 349 316 304 318 340 336 314 340 317 293 303 335 318 341 346 318 5 226 225 226 229 192 199 219 206 217 213 231 213 229 199 94 106 139 186 194 199 206 197
306 309 350 296 347 330 338 312 321 51 311 319 358 343 338 308 265 275 310 312 329 340 322 287 251 228 217 198 189 211 209 214 215 217 223 208 219 132 104 130 147 158 161 178 185
289 345 2 309 330 337 302 290 295 326 341 301 195 323 326 314 317 13 323 318 298 65 313 271 242 241 252 253 229 202 213 216 215 219 222 208 208 166 140 136 134 142 131 127 146
308 342 323 296 317 302 296 302 305 333 329 303 319 331 314 296 296 302 304 319 328 334 338 313 268 253 252 249 217 258 240 214 214 220 222 234 232 197 159 178 190 207 200 234 277
319 307 300 290 298 300 295 318 317 302 303 326 308 308 301 316 291 301 259 272 280 293 300 299 280 244 232 238 226 238 234 238 225 210 223 220 231 252 222 220 244 247 237 238 258
Height
814 810 805 801 797 793 789 786 782 779 776 774 771 769 767 764 762 761 752 747 748 751 752 754 755 753 750 746 739 729 753 744 726 738 722 714 726 722 724 738 738 740 753 769 783
813 809 804 800 795 791 786 782 779 775 772 769 767 765 764 762 759 749 739 741 744 747 750 747 745 746 745 742 733 740 785 761 705 706 721 713 718 728 734 740 746 745 757 773 781
813 808 803 798 793 788 784 778 774 770 767 764 763 762 761 761 753 724 723 730 738 743 743 742 741 740 742 731 729 728 766 745 714 709 703 712 718 719 731 744 743 754 762 771 778
812 807 802 796 791 785 779 774 769 765 762 760 759 759 759 762 745 720 724 727 732 740 740 736 734 740 739 737 721 736 719 725 707 710 711 712 707 721 722 728 733 747 758 767 776
811 806 800 794 788 782 775 769 764 759 755 754 754 756 759 748 728 723 724 725 731 736 731 729 731 732 737 724 722 729 716 711 708 711 711 710 716 723 726 723 732 746 757 765 772
810 804 798 791 784 777 771 764 758 753 749 748 749 753 754 742 716 719 723 726 727 730 726 724 723 722 726 720 723 714 717 712 711 711 711 720 718 719 720 722 733 745 754 761 767
808 802 795 788 781 773 766 760 753 749 745 743 745 749 742 722 715 717 719 722 723 724 720 721 720 721 717 724 710 712 729 719 715 713 714 711 727 727 713 722 734 743 749 756 763
808 801 794 786 777 769 762 757 751 747 743 739 742 748 727 709 713 715 715 717 719 722 718 718 719 717 718 709 720 727 724 738 714 711 709 716 735 712 707 721 732 737 744 750 757
807 799 792 784 774 765 760 754 750 747 742 740 744 742 718 706 709 708 710 710 713 717 717 715 716 720 720 729 735 724 738 733 718 699 707 715 724 703 701 715 726 733 739 746 753
805 798 790 782 774 765 756 751 748 748 746 744 740 740 711 698 696 701 705 707 707 711 716 715 717 728 720 727 743 732 729 713 719 700 703 713 715 708 699 707 719 727 733 741 746
804 797 789 780 773 766 755 746 743 739 739 718 711 703 690 691 695 696 699 703 703 709 722 714 727 722 717 713 711 707 709 713 695 686 704 710 708 704 696 704 711 720 727 734 739
803 795 788 780 774 769 763 760 767 769 743 720 705 703 696 692 694 691 696 700 701 712 710 720 718 706 705 705 710 712 710 706 694 683 699 703 708 694 691 696 702 710 719 725 731
802 795 786 779 774 769 767 768 767 763 746 697 681 682 683 689 687 681 686 686 695 704 702 703 697 696 700 705 712 711 710 705 705 694 689 705 715 704 689 686 695 697 706 714 720
803 796 787 777 774 770 764 768 765 763 743 678 669 664 670 678 682 668 674 680 685 692 692 696 678 690 698 701 699 713 697 701 704 708 722 698 739 708 696 694 696 696 699 704 712
803 795 787 783 780 771 772 766 764 760 731 653 666 661 656 668 647 662 661 674 677 683 686 683 683 686 695 691 688 701 686 702 706 711 712 704 716 697 682 694 690 690 690 694 699
801 794 788 782 776 772 770 764 760 754 718 661 659 667 668 666 654 643 660 665 666 674 670 673 659 668 675 677 680 684 697 699 702 711 727 711 710 702 683 679 675 676 680 684 690
798 793 788 784 777 773 768 759 752 736 662 682 685 667 660 658 664 648 662 674 673 689 681 674 668 660 661 680 676 690 704 729 734 725 722 696 706 692 666 659 662 668 670 672 678
795 789 786 781 776 771 767 756 756 707 713 709 708 696 689 662 650 650 658 665 661 661 667 679 689 659 653 663 678 687 689 703 735 721 709 686 698 681 655 647 645 649 655 661 670
793 782 780 778 774 770 762 751 733 732 737 733 714 684 671 654 652 648 651 654 651 650 665 659 664 634 643 650 657 677 684 663 674 669 681 670 667 652 642 646 650 648 652 655 660
797 779 774 775 771 764 755 747 740 745 743 740 734 699 690 674 665 654 643 637 643 638 637 638 657 633 639 644 649 651 659 691 677 703 703 675 666 671 657 655 646 651 652 651 649
790 772 773 772 765 753 747 745 750 750 745 745 739 730 724 720 703 668 647 657 654 646 632 637 641 637 628 642 654 660 662 668 665 668 687 695 669 623 634 638 647 643 644 645 646
789 776 775 772 758 747 751 759 763 751 745 742 737 728 724 726 722 695 676 668 674 663 646 633 645 652 626 625 628 636 651 656 676 684 667 661 662 621 619 626 631 640 637 638 638
791 775 772 771 768 759 758 758 755 753 750 752 747 745 743 736 737 722 701 686 680 669 668 654 650 658 636 628 627 637 638 638 648 649 671 682 668 629 632 631 629 636 634 635 636
796 777 772 767 766 769 768 765 763 764 751 752 753 754 750 733 721 717 718 701 687 682 690 681 651 644 630 621 624 646 634 635 640 659 659 659 653 648 646 646 642 637 634 636 641
800 788 794 782 776 777 777 767 768 767 756 753 754 759 755 751 741 752 730 708 687 688 676 669 670 647 629 612 619 621 633 631 640 642 656 644 651 640 643 646 642 641 644 648 652
816 806 797 791 784 785 774 770 768 760 761 756 752 754 754 753 746 741 747 732 715 704 694 672 678 658 644 623 640 646 623 624 627 635 640 640 640 621 627 633 642 647 650 656 657
823 819 813 797 785 781 776 771 769 764 762 759 759 756 752 748 745 735 734 727 720 718 710 701 678 670 666 645 651 663 637 628 622 623 632 650 639 621 631 641 646 650 651 655 654